This demonstration page uses our WeatherBlox Daily Observations layout. Learn more.

Left ArrowRight Arrow

40.92501, -98.34201

Hourly Observations for July 23, 2021

Temp ( °F °C ) Dew Point ( °F °C ) Humidity (%) Winds ( mph kmh ) Pressure ( in mb ) Visibility ( mi km ) Precip ( " mm )
12:53 am 00:53 Clear 74 23.3 62 16.7 67 67 S 14 22 29.98 1015 7 11 0.00 0.00
1:53 am 01:53 Clear 73 22.8 62 16.7 69 69 S 13 20 29.97 1015 7 11 0.00 0.00
2:53 am 02:53 Clear 72 22.2 62 16.7 71 71 S 14 22 29.96 1015 7 11 0.00 0.00
3:53 am 03:53 Clear 71 21.7 62 16.7 73 73 S 12 19 29.96 1015 7 11 0.00 0.00
4:53 am 04:53 Clear 70 21.1 62 16.7 76 76 S 9 15 29.96 1015 7 11 0.00 0.00
5:53 am 05:53 Clear 69 20.6 62 16.7 78 78 S 10 17 29.96 1015 7 11 0.00 0.00
6:53 am 06:53 Sunny 70 21.1 62 16.7 76 76 S 12 19 29.97 1015 7 11 0.00 0.00
7:53 am 07:53 Sunny 74 23.3 62 16.7 67 67 SSW 13 20 29.98 1015 8 13 0.00 0.00
8:53 am 08:53 Sunny 78 25.6 63 17.2 60 60 SSW 13 20 29.99 1016 9 14 0.00 0.00
9:53 am 09:53 Sunny 81 27.2 64 17.8 57 57 SSW 14 22 29.98 1015 9 14 0.00 0.00
10:53 am 10:53 Sunny 84 28.9 66 18.9 55 55 SW 15 24 29.98 1015 10 16 0.00 0.00
11:53 am 11:53 Sunny 87 30.6 67 19.4 51 51 SSW 15 24 29.97 1015 10 16 0.00 0.00
12:53 pm 12:53 Sunny 89 31.7 68 20 50 50 SSW 13 20 29.96 1015 10 16 0.00 0.00
1:53 pm 13:53 Sunny 91 32.8 69 20.6 49 49 SSW 12 19 29.96 1015 10 16 0.00 0.00
2:53 pm 14:53 Sunny 93 33.9 67 19.4 42 42 S 16 26 29.94 1014 10 16 0.00 0.00
3:53 pm 15:53 Sunny 93 33.9 67 19.4 42 42 S 15 24 29.93 1014 10 16 0.00 0.00
4:53 pm 16:53 Sunny 93 33.9 67 19.4 42 42 S 15 24 29.93 1014 10 16 0.00 0.00
5:53 pm 17:53 Sunny 93 33.9 66 18.9 41 41 SSE 12 19 29.91 1013 10 16 0.00 0.00
6:53 pm 18:53 Sunny 91 32.8 68 20 47 47 SSE 9 15 29.90 1012 10 16 0.00 0.00
7:53 pm 19:53 Sunny 88 31.1 70 21.1 55 55 SE 7 11 29.89 1012 10 16 0.00 0.00
8:53 pm 20:53 Sunny 83 28.3 71 21.7 67 67 SSE 8 13 29.89 1012 10 16 0.00 0.00
9:53 pm 21:53 Clear 81 27.2 69 20.6 67 67 SSE 9 15 29.90 1013 10 16 0.00 0.00
10:53 pm 22:53 Clear 80 26.7 67 19.4 64 64 S 9 15 29.90 1013 10 16 0.00 0.00
11:53 pm 23:53 Clear 78 25.6 67 19.4 69 69 S 9 15 29.90 1013 10 16 0.00 0.00

Powered by AerisWeather